星链-35006 (STARLINK-35006)

导读

STARLINK-35006是美国SpaceX公司于2025年8月22日发射的星链低轨通信卫星,隶属于Starlink全球卫星互联网星座。该卫星运行于约550公里低地球轨道,配备相控阵天线与激光星间链路,支持高速宽带通信与手机直连服务,通过多星组网实现全球覆盖,为地面网络盲区提供低时延互联网接入,助力构建天基全球通信网络。

基本信息
目录编号:
65284
目录名称:
STARLINK-35006
国际标识:
2025-184M
轨道中心:
EARTH
卫星名称:
星链-35006
卫星全名:
星链-35006 (STARLINK-35006)
卫星状态:
在轨 (已飞行378 天)
发射日期:
2025-08-22 UTC
国别 :
美国 (US)
星等 :
--
轨道信息
数据来源 国际轨道数据 AOE轨道数据
星历时间 2026-09-03T10:12:23+0800
1天前
查看轨道信息
2026-09-03T23:00:00+0800
14小时前
查看轨道信息
半长轴 6843.674km 6843.715km
偏心率 0.0001518 0.0001526
轨道倾角 97.283° 97.286°
近地点辐角 90.703° 90.270°
升交点赤经 294.270° 294.795°
平近点角 269.439° 330.648°
近地点 464.498km 464.533km
远地点 466.576km 466.623km
周期 93.906分钟 93.907分钟
每日圈数 15.334474 15.334333
详细信息
固有亮度:
5
最大亮度:
2.5
卫星平台:
Starlink V1.0
覆盖范围:
全球
运营商:
太空探索技术公司
运营商所在国:
美国
制造商(研发单位):
太空探索技术公司
制造商所在国:
美国
使用方式:
暂无
卫星简介
Starlink 计划是 SpaceX 推出的全球卫星互联网项目,通过发射低轨道卫星,为全球尤其是偏远地区提供高速、低延迟的互联网服务。自 2019 年起,Starlink 已部署数千颗卫星,旨在缩小全球数字鸿沟,推动互联网普及。该项目还为军事、航空等行业提供通信支持,带来广泛经济效益。
2D轨道图
3D轨道图
轨道高度分析图
轨道倾角分析图
轨道综合分析图
查看轨道综合分析图
交会数据列表
事件ID 空间交会对象 最接近时刻(TCA) 交会距离 交会风险概率(CRP) 交会风险指数(CRI) 操作
CDM_260904-231405-632406-528421
2026-09-04T
23:14:40+0000
0.576 km
远距离
8.69735E-5 中风险 0.74
CDM_260904-205305-632406-528421
2026-09-04T
20:53:43+0000
0.786 km
远距离
3.429024E-5 中风险 0.66
CDM_260905-093304-975406-528421
2026-09-05T
09:33:57+0000
2.119 km
极远距离
2.196344E-6 低风险 0.42
CDM_260904-222705-632406-528421
2026-09-04T
22:27:41+0000
2.110 km
极远距离
1.519798E-6 低风险 0.39
CDM_260829-021106-151006-528421
2026-08-29T
02:11:03+0000
2.774 km
极远距离
1.416362E-6 低风险 0.38
CDM_260905-004805-632406-528421
2026-09-05T
00:48:38+0000
2.340 km
极远距离
1.224897E-6 低风险 0.37